User: anonymous   Login
Location: Unspecified
(0.0000°N, 0.0000°E)
Time: 13:48:44
(UTC+01:00)
Language:

Iridium 47 - Orbit

View from above orbital plane
View from above orbital plane
View from above satellite
View from above satellite

Ground track
Ground track

The orbit data is extracted from the following two-line orbital elements,

1 25106U 97082C   17351.51157371 -.00000036  00000-0 -19932-4 0  9996
2 25106  86.3963 178.6859 0001993  90.5968 269.5456 14.34214649 46649
Epoch (UTC): 17 December 2017 12:16:39
Eccentricity: 0.0001993
inclination: 86.3963°
perigee height: 776 km
apogee height: 779 km
right ascension of ascending node: 178.6859°
argument of perigee: 90.5968°
revolutions per day: 14.34214649
mean anomaly at epoch: 269.5456°
orbit number at epoch: 4664

The dashed part of the orbit path shows where the satellite is in the earth's shadow,  

DLR